Poteau, OK

4:21 AM CDT on September 24, 2017 (GMT -0500)
Kerr

Weather History for KRKR - April, 2013

Change the Weather History Date:

Friday, April 12, 2013

  Actual Average (KFSM) Record (KFSM)
Temperature  
Mean Temperature 50 °F -  
Max Temperature 64 °F 71 °F 92 °F (1972)
Min Temperature 37 °F 47 °F 30 °F (1940)
Degree Days  
Heating Degree Days 14    
Moisture  
Dew Point 41 °F    
Average Humidity 71    
Maximum Humidity 100    
Minimum Humidity 40    
Precipitation  
Precipitation 0.00 in - - ()
Sea Level Pressure  
Sea Level Pressure 29.96 in    
Wind  
Wind Speed 3 mph (NNW)    
Max Wind Speed 12 mph    
Max Gust Speed 18 mph    
Visibility 10 miles    
Events      
Averages and records for this station are not official NWS values.
T = Trace of Precipitation, MM = Missing Value Source: NWS Daily Summary

Daily Weather History Graph

Daily Weather History Graph

Search for Another Location

Airport or City:

Trip Planner

Search our weather history database for the weather conditions in past years. The results will help you decide how hot, cold, wet, or windy it might be!

Date:

Astronomy

Apr. 12, 2013 Rise Set
Actual Time 6:50 AM CDT 7:48 PM CDT
Civil Twilight 6:24 AM CDT 8:14 PM CDT
Nautical Twilight 5:53 AM CDT 8:45 PM CDT
Astronomical Twilight 5:21 AM CDT 9:17 PM CDT
Moon 8:05 AM CDT (4/12) 10:14 PM CDT (4/12)
Length of Visible Light 13h 50m
Length of Day
12h 58m
Waxing Crescent, 5% of the Moon is Illuminated
Apr 12
Waxing Crescent
Apr 18
First Quarter
Apr 25
Full
May 2
Last Quarter
May 9
New

Hourly Weather History & Observations

Time (CDT) Temp. Windchill Dew Point Humidity Pressure Visibility Wind Dir Wind Speed Gust Speed Precip Events Conditions
12:15 AM 41.0 °F - 41.0 °F 100% 29.86 in 10.0 mi Calm Calm - N/A   Clear
12:35 AM 41.0 °F - 41.0 °F 100% 29.86 in 10.0 mi Calm Calm - N/A   Clear
12:55 AM 42.8 °F - 41.0 °F 93% 29.86 in 10.0 mi Calm Calm - N/A   Clear
1:15 AM 41.0 °F - 41.0 °F 100% 29.86 in 10.0 mi Calm Calm - N/A   Clear
1:35 AM 41.0 °F - 41.0 °F 100% 29.86 in 10.0 mi Calm Calm - N/A   Clear
1:55 AM 41.0 °F - 41.0 °F 100% 29.86 in 10.0 mi Calm Calm - N/A   Clear
2:15 AM 41.0 °F - 39.2 °F 93% 29.86 in 10.0 mi Calm Calm - N/A   Clear
2:35 AM 41.0 °F - 39.2 °F 93% 29.86 in 10.0 mi Calm Calm - N/A   Clear
2:55 AM 41.0 °F - 39.2 °F 93% 29.87 in 10.0 mi Calm Calm - N/A   Clear
3:15 AM 41.0 °F - 41.0 °F 100% 29.87 in 10.0 mi Calm Calm - N/A   Clear
3:35 AM 41.0 °F - 41.0 °F 100% 29.88 in 10.0 mi Calm Calm - N/A   Clear
3:55 AM 41.0 °F 39.0 °F 39.2 °F 93% 29.88 in 10.0 mi South 3.5 mph - N/A   Clear
4:15 AM 39.2 °F - 37.4 °F 93% 29.88 in 10.0 mi Calm Calm - N/A   Clear
4:35 AM 37.4 °F 33.8 °F 37.4 °F 100% 29.88 in 10.0 mi South 4.6 mph - N/A   Clear
4:55 AM 37.4 °F - 37.4 °F 100% 29.89 in 10.0 mi Calm Calm - N/A   Clear
5:15 AM 37.4 °F 34.9 °F 37.4 °F 100% 29.89 in 10.0 mi SSW 3.5 mph - N/A   Clear
5:35 AM 39.2 °F 33.6 °F 39.2 °F 100% 29.90 in 10.0 mi SSW 8.1 mph - N/A   Clear
5:55 AM 41.0 °F 36.4 °F 39.2 °F 93% 29.90 in 10.0 mi SW 6.9 mph - N/A   Clear
6:15 AM 37.4 °F 33.8 °F 37.4 °F 100% 29.91 in 10.0 mi SW 4.6 mph - N/A   Clear
6:35 AM 41.0 °F 37.1 °F 39.2 °F 93% 29.91 in 10.0 mi SSE 5.8 mph - N/A   Clear
6:55 AM 41.0 °F 39.0 °F 39.2 °F 93% 29.92 in 10.0 mi SSE 3.5 mph - N/A   Clear
7:15 AM 41.0 °F 38.0 °F 41.0 °F 100% 29.93 in 10.0 mi South 4.6 mph - N/A   Clear
7:35 AM 41.0 °F - 39.2 °F 93% 29.93 in 10.0 mi Calm Calm - N/A   Clear
7:55 AM 41.0 °F - 39.2 °F 93% 29.94 in 10.0 mi Calm Calm - N/A   Clear
8:15 AM 42.8 °F - 41.0 °F 93% 29.95 in 10.0 mi Calm Calm - N/A   Clear
8:35 AM 48.2 °F - 42.8 °F 82% 29.96 in 10.0 mi WSW 5.8 mph - N/A   Clear
8:55 AM 51.8 °F - 42.8 °F 71% 29.97 in 10.0 mi WSW 9.2 mph - N/A   Clear
9:15 AM 51.8 °F - 41.0 °F 67% 29.98 in 10.0 mi WSW 10.4 mph - N/A   Clear
9:55 AM 53.6 °F - 41.0 °F 62% 30.00 in 10.0 mi North 5.8 mph - N/A   Clear
10:15 AM 53.6 °F - 39.2 °F 58% 30.00 in 10.0 mi North 6.9 mph 10.4 mph N/A   Clear
10:35 AM 53.6 °F - 37.4 °F 54% 30.01 in 10.0 mi North 8.1 mph - N/A   Clear
10:55 AM 55.4 °F - 41.0 °F 58% 30.01 in 10.0 mi North 8.1 mph 16.1 mph N/A   Clear
11:15 AM 55.4 °F - 39.2 °F 54% 30.02 in 10.0 mi North 11.5 mph 18.4 mph N/A   Clear
11:35 AM 55.4 °F - 37.4 °F 51% 30.02 in 10.0 mi NNW 9.2 mph - N/A   Clear
11:55 AM 55.4 °F - 37.4 °F 51% 30.03 in 10.0 mi NE 8.1 mph - N/A   Clear
12:15 PM 59.0 °F - 37.4 °F 45% 30.03 in 10.0 mi NE 4.6 mph - N/A   Clear
12:35 PM 59.0 °F - 39.2 °F 48% 30.02 in 10.0 mi NNW 10.4 mph - N/A   Clear
12:55 PM 59.0 °F - 37.4 °F 45% 30.02 in 10.0 mi Calm Calm - N/A   Clear
1:15 PM 60.8 °F - 37.4 °F 42% 30.02 in 10.0 mi West 5.8 mph - N/A   Clear
1:35 PM 60.8 °F - 39.2 °F 45% 30.01 in 10.0 mi West 10.4 mph - N/A   Clear
1:55 PM 60.8 °F - 39.2 °F 45% 30.01 in 10.0 mi West 8.1 mph - N/A   Scattered Clouds
2:15 PM 60.8 °F - 37.4 °F 42% 30.01 in 10.0 mi WSW 3.5 mph - N/A   Clear
2:35 PM 62.6 °F - 39.2 °F 42% 30.00 in 10.0 mi North 5.8 mph - N/A   Clear
2:55 PM 60.8 °F - 39.2 °F 45% 30.00 in 3.0 mi NNE 4.6 mph - N/A   Haze
3:15 PM 62.6 °F - 41.0 °F 45% 29.99 in 10.0 mi NNE 6.9 mph - N/A   Clear
3:35 PM 62.6 °F - 41.0 °F 45% 29.98 in 10.0 mi NNE 5.8 mph - N/A   Clear
3:55 PM 62.6 °F - 42.8 °F 48% 29.97 in 10.0 mi North 8.1 mph - N/A   Clear
4:15 PM 62.6 °F - 41.0 °F 45% 29.97 in 10.0 mi North 9.2 mph - N/A   Clear
4:35 PM 62.6 °F - 41.0 °F 45% 29.97 in 10.0 mi North 6.9 mph - N/A   Clear
4:55 PM 62.6 °F - 42.8 °F 48% 29.97 in 10.0 mi Calm Calm - N/A   Scattered Clouds
5:15 PM 62.6 °F - 41.0 °F 45% 29.97 in 10.0 mi North 5.8 mph - N/A   Clear
5:35 PM 62.6 °F - 41.0 °F 45% 29.97 in 10.0 mi NNE 9.2 mph - N/A   Clear
5:55 PM 64.4 °F - 39.2 °F 40% 29.97 in 10.0 mi Calm Calm - N/A   Clear
6:15 PM 62.6 °F - 41.0 °F 45% 29.97 in 10.0 mi North 5.8 mph - N/A   Clear
6:35 PM 62.6 °F - 41.0 °F 45% 29.97 in 10.0 mi North 9.2 mph - N/A   Clear
6:55 PM 60.8 °F - 41.0 °F 48% 29.96 in 10.0 mi North 8.1 mph - N/A   Clear
7:15 PM 59.0 °F - 41.0 °F 51% 29.97 in 10.0 mi North 5.8 mph - N/A   Clear
7:35 PM 59.0 °F - 41.0 °F 51% 29.96 in 10.0 mi NNW 6.9 mph - N/A   Clear
7:55 PM 59.0 °F - 41.0 °F 51% 29.97 in 10.0 mi North 5.8 mph - N/A   Clear
8:15 PM 59.0 °F - 39.2 °F 48% 29.98 in 10.0 mi Calm Calm - N/A   Clear
8:35 PM 55.4 °F - 42.8 °F 63% 29.98 in 10.0 mi Calm Calm - N/A   Clear
8:55 PM 53.6 °F - 44.6 °F 72% 29.99 in 10.0 mi Calm Calm - N/A   Clear
9:15 PM 53.6 °F - 44.6 °F 72% 29.99 in 10.0 mi Calm Calm - N/A   Clear
9:35 PM 53.6 °F - 46.4 °F 77% 30.00 in 10.0 mi Calm Calm - N/A   Clear
9:55 PM 51.8 °F - 46.4 °F 82% 30.01 in 10.0 mi Calm Calm - N/A   Clear
10:15 PM 51.8 °F - 44.6 °F 76% 30.01 in 10.0 mi Calm Calm - N/A   Clear
10:35 PM 51.8 °F - 44.6 °F 76% 30.02 in 10.0 mi Calm Calm - N/A   Clear
10:55 PM 51.8 °F - 46.4 °F 82% 30.02 in 10.0 mi Calm Calm - N/A   Clear
11:15 PM 48.2 °F - 44.6 °F 87% 30.03 in 10.0 mi Calm Calm - N/A   Clear
11:35 PM 50.0 °F - 46.4 °F 87% 30.03 in 10.0 mi Calm Calm - N/A   Clear
11:55 PM 48.2 °F - 44.6 °F 87% 30.03 in 10.0 mi Calm Calm - N/A   Clear